Stations météo

réclame
Mon MeteoGroup
Edinburgh/Gogarbank, Grande-Bretagne (3166): Température de l'air & dewpoint: 08.07.2020 21:00:00 - 14.07.2020 21:00:00 (BST)Edinburgh/Gogarbank, Grande-Bretagne (3166): Température de l'air -20cm & Température de l'air -100cm: 08.07.2020 21:00:00 - 14.07.2020 21:00:00 (BST)Edinburgh/Gogarbank, Grande-Bretagne (3166): Vitesse du vent & gusts: 08.07.2020 21:00:00 - 14.07.2020 21:00:00 (BST)Edinburgh/Gogarbank, Grande-Bretagne (3166): Direction du vent: 08.07.2020 21:00:00 - 14.07.2020 21:00:00 (BST)Edinburgh/Gogarbank, Grande-Bretagne (3166): reduced air pressure: 08.07.2020 21:00:00 - 14.07.2020 21:00:00 (BST)Edinburgh/Gogarbank, Grande-Bretagne (3166): visibility: 08.07.2020 21:00:00 - 14.07.2020 21:00:00 (BST)Edinburgh/Gogarbank, Grande-Bretagne (3166): Ensoleillement: 08.07.2020 21:00:00 - 14.07.2020 21:00:00 (BST)Edinburgh/Gogarbank, Grande-Bretagne (3166): Quantités de précipitations: 08.07.2020 21:00:00 - 14.07.2020 21:00:00 (BST)
Date & Time tt [°C] td [°C] tt -20cm [°C] tt -100cm [°C] ff [km/h] ff [knt] fx [km/h] fx [knt] dd ppp [hPa] vv [km] sd [min] rr [mm]
14.07.2020 21:00:00 14,1 10,7 - - 13 7 - - WSW 1012,5 50 0 0,0
14.07.2020 20:00:00 14,8 11,4 - - 13 7 - - WSW 1012,8 50 0 0,0
14.07.2020 19:00:00 14,7 11,9 - - 15 8 - - WSW 1012,7 50 0 0,0
14.07.2020 18:00:00 14,8 11,4 - - 16 9 - - WSW 1012,9 45 0 0,0
14.07.2020 17:00:00 15,4 11,1 - - 18 10 - - WSW 1013,2 45 0 0,0
14.07.2020 16:00:00 16,3 10,7 - - 21 11 - - W 1013,6 45 0 0,0
14.07.2020 15:00:00 16,7 9,8 - - 24 13 - - W 1013,6 50 18 0,0
14.07.2020 14:00:00 16,4 8,6 - - 18 10 - - W 1013,8 50 12 0,0
14.07.2020 13:00:00 17,1 9,6 - - 24 13 - - W 1013,8 45 24 0,0
14.07.2020 12:00:00 15,6 8,7 - - 18 10 - - W 1014,2 50 30 0,0
14.07.2020 11:00:00 15,2 8,6 - - 18 10 - - W 1014,7 45 30 0,0
14.07.2020 10:00:00 15,7 8,6 15,2 13,7 21 11 - - W 1014,7 45 60 0,0
14.07.2020 09:00:00 14,3 9,2 - - 18 10 - - WSW 1014,9 35 60 0,0
14.07.2020 08:00:00 13,4 8,9 - - 21 11 - - W 1015,0 40 60 0,0
14.07.2020 07:00:00 12,1 8,7 - - 21 11 - - WSW 1015,1 35 54 0,0
14.07.2020 06:00:00 11,4 8,9 - - 18 10 - - WSW 1015,2 50 18 0,0
14.07.2020 05:00:00 11,0 8,8 - - 15 8 - - WSW 1015,3 50 0 0,0
14.07.2020 04:00:00 11,0 9,0 - - 16 9 - - WSW 1015,3 50 0 0,0
14.07.2020 03:00:00 10,6 8,5 - - 15 8 - - WSW 1015,8 50 0 0,0
14.07.2020 02:00:00 11,6 8,7 - - 15 8 - - WSW 1016,0 50 0 0,0
14.07.2020 01:00:00 11,7 8,4 - - 18 10 - - W 1016,0 50 - 0,0
14.07.2020 00:00:00 11,6 8,3 - - 21 11 - - W 1015,9 50 0 0,0
13.07.2020 23:00:00 12,4 8,3 - - 22 12 - - W 1015,7 45 0 0,0
13.07.2020 22:00:00 12,9 8,5 - - 21 11 - - W 1015,9 50 18 0,0
13.07.2020 21:00:00 14,3 9,5 - - 22 12 - - W 1015,7 50 42 0,0
13.07.2020 20:00:00 16,2 9,3 - - 28 15 - - W 1014,9 40 48 0,0
13.07.2020 19:00:00 16,9 9,6 - - 28 15 - - W 1015,1 50 36 0,0
13.07.2020 18:00:00 17,4 10,0 - - 26 14 48 26 W 1015,1 30 6 0,0
13.07.2020 17:00:00 17,2 11,3 - - 28 15 46 25 W 1015,2 50 6 0,0
13.07.2020 16:00:00 18,0 11,6 - - 24 13 - - W 1015,1 40 18 0,0
13.07.2020 15:00:00 17,9 13,3 - - 21 11 - - WSW 1015,3 45 6 0,0
13.07.2020 14:00:00 18,3 12,9 - - 22 12 - - W 1015,4 45 18 0,0
13.07.2020 13:00:00 16,8 13,4 - - 24 13 - - WSW 1015,8 50 6 0,0
13.07.2020 12:00:00 15,9 14,8 - - 15 8 - - W 1016,1 40 0 0,4
13.07.2020 11:00:00 17,7 14,3 - - 21 11 - - WSW 1016,2 35 0 0,0
13.07.2020 10:00:00 16,8 13,6 15,2 13,7 18 10 - - WSW 1016,6 16 12 0,0
13.07.2020 09:00:00 17,4 13,2 - - 24 13 - - SW 1016,6 45 24 0,0
13.07.2020 08:00:00 17,5 13,8 - - 16 9 - - WSW 1016,9 45 30 0,0
13.07.2020 07:00:00 15,3 12,9 - - 13 7 - - SW 1017,4 50 24 0,0
13.07.2020 06:00:00 15,2 12,8 - - 21 11 - - SSW 1017,7 50 0 0,0
13.07.2020 05:00:00 14,8 12,8 - - 18 10 - - SSW 1018,0 50 0 0,0
13.07.2020 04:00:00 14,5 12,6 - - 22 12 - - SW 1018,5 23 0 0,0
13.07.2020 03:00:00 14,7 12,5 - - 18 10 - - SW 1019,1 21 0 0,0
13.07.2020 02:00:00 14,6 12,3 - - 18 10 - - SSW 1019,7 35 0 0,0
13.07.2020 01:00:00 14,8 11,4 - - 15 8 - - SW 1020,1 45 - 0,0
13.07.2020 00:00:00 15,0 10,8 - - 18 10 - - SW 1020,6 50 0 0,0
12.07.2020 23:00:00 15,0 10,3 - - 18 10 - - SW 1021,1 50 0 0,0
12.07.2020 22:00:00 14,9 9,6 - - 9 5 - - SW 1021,9 50 0 0,0
12.07.2020 21:00:00 15,5 8,7 - - 13 7 - - SW 1022,2 50 12 0,0
12.07.2020 20:00:00 16,2 7,7 - - 24 13 - - SW 1022,4 45 6 0,0
12.07.2020 19:00:00 18,1 8,7 - - 21 11 - - SW 1022,6 50 12 0,0
12.07.2020 18:00:00 18,0 9,0 - - 18 10 - - SSW 1023,1 45 0 0,0
12.07.2020 17:00:00 18,9 9,5 - - 21 11 - - SW 1023,3 50 0 0,0
12.07.2020 16:00:00 19,2 9,8 - - 18 10 - - SW 1023,6 50 12 0,0
12.07.2020 15:00:00 20,3 10,5 - - 21 11 - - WSW 1024,2 50 36 0,0
12.07.2020 14:00:00 19,4 9,2 - - 16 9 - - WSW 1024,7 45 42 0,0
12.07.2020 13:00:00 17,7 7,6 - - 22 12 - - W 1025,0 45 24 0,0
12.07.2020 12:00:00 17,4 8,2 - - 16 9 - - WSW 1025,3 40 24 0,0
12.07.2020 11:00:00 16,8 8,7 - - 18 10 - - WSW 1025,5 35 36 0,0
12.07.2020 10:00:00 15,1 9,2 15,0 13,7 13 7 - - WSW 1025,8 35 54 0,0
12.07.2020 09:00:00 14,0 8,2 - - 15 8 - - WSW 1026,1 40 60 0,0
12.07.2020 08:00:00 12,8 9,3 - - 15 8 - - WSW 1026,2 45 36 0,0
12.07.2020 07:00:00 10,7 8,5 - - 16 9 - - WSW 1026,0 50 6 0,0
12.07.2020 06:00:00 8,8 7,4 - - 11 6 - - SW 1026,0 50 0 0,0
12.07.2020 05:00:00 8,7 6,8 - - 13 7 - - SW 1025,9 50 0 0,0
12.07.2020 04:00:00 8,6 6,1 - - 13 7 - - SW 1025,9 50 0 0,0
12.07.2020 03:00:00 9,2 6,3 - - 13 7 - - SW 1026,2 50 0 0,0
12.07.2020 02:00:00 9,7 6,2 - - 13 7 - - SW 1026,6 50 0 0,0
12.07.2020 01:00:00 11,0 7,3 - - 18 10 - - WSW 1026,4 50 - 0,0
12.07.2020 00:00:00 10,7 7,8 - - 13 7 - - WSW 1026,6 50 0 0,0
11.07.2020 23:00:00 12,3 8,1 - - 16 9 - - W 1026,7 50 0 0,0
11.07.2020 22:00:00 12,9 8,1 - - 18 10 - - W 1026,5 50 0 0,0
11.07.2020 21:00:00 14,0 7,6 - - 18 10 - - W 1026,1 50 6 0,0
11.07.2020 20:00:00 14,7 8,1 - - 21 11 - - W 1025,5 50 12 0,0
11.07.2020 19:00:00 15,8 8,3 - - 21 11 - - W 1025,1 50 6 0,0
11.07.2020 18:00:00 16,2 6,9 - - 22 12 - - W 1024,8 50 24 0,0
11.07.2020 17:00:00 16,8 7,7 - - 24 13 - - W 1024,8 50 18 0,0
11.07.2020 16:00:00 16,9 8,1 - - 26 14 - - W 1024,6 50 30 0,0
11.07.2020 15:00:00 16,5 8,3 - - 22 12 - - W 1024,6 45 6 0,0
11.07.2020 14:00:00 16,5 8,8 - - 18 10 - - W 1024,6 40 0 0,0
11.07.2020 13:00:00 15,8 8,2 - - 18 10 - - WSW 1024,5 45 0 0,0
11.07.2020 12:00:00 15,0 8,1 - - 21 11 - - WSW 1024,3 50 0 0,0
11.07.2020 11:00:00 14,2 7,2 - - 18 10 - - W 1023,9 45 6 0,0
11.07.2020 10:00:00 13,2 7,6 15,2 13,5 16 9 - - W 1023,9 50 0 0,0
11.07.2020 09:00:00 13,3 8,3 - - 21 11 - - W 1023,6 45 42 0,0
11.07.2020 08:00:00 12,5 8,8 - - 21 11 - - WSW 1023,0 50 60 0,0
11.07.2020 07:00:00 11,1 8,4 - - 18 10 - - W 1022,7 50 48 0,0
11.07.2020 06:00:00 9,6 8,0 - - 15 8 - - WSW 1022,5 30 12 0,0
11.07.2020 05:00:00 8,5 7,1 - - 9 5 - - SW 1022,4 40 0 0,0
11.07.2020 04:00:00 9,9 7,7 - - 13 7 - - WSW 1022,1 30 0 0,0
11.07.2020 03:00:00 10,3 8,1 - - 13 7 - - WSW 1021,9 50 0 0,0
11.07.2020 02:00:00 10,3 8,1 - - 13 7 - - WSW 1021,6 50 0 0,0
11.07.2020 01:00:00 10,6 7,7 - - 13 7 - - WSW 1021,4 45 - 0,0
11.07.2020 00:00:00 11,1 7,9 - - 13 7 - - W 1021,1 45 0 0,0
10.07.2020 23:00:00 11,8 7,5 - - 15 8 - - W 1020,4 45 0 0,0
10.07.2020 22:00:00 12,6 7,7 - - 15 8 - - W 1019,7 50 0 0,0
10.07.2020 21:00:00 14,5 7,3 - - 18 10 - - W 1018,8 50 6 0,0
10.07.2020 20:00:00 14,9 7,9 - - 21 11 - - W 1018,4 45 0 0,0
10.07.2020 19:00:00 16,3 7,9 - - 24 13 - - W 1017,8 35 48 0,0
10.07.2020 18:00:00 16,1 8,4 - - 24 13 - - W 1017,5 45 12 0,0
10.07.2020 17:00:00 17,0 9,2 - - 18 10 - - W 1017,0 50 18 0,0
10.07.2020 16:00:00 17,2 8,4 - - 22 12 - - W 1016,8 40 24 0,0
10.07.2020 15:00:00 15,5 7,2 - - 21 11 - - W 1016,9 35 12 0,0
10.07.2020 14:00:00 17,4 9,1 - - 18 10 - - WNW 1016,7 50 24 0,0
10.07.2020 13:00:00 16,6 7,3 - - 15 8 - - NW 1016,6 50 48 0,0
10.07.2020 12:00:00 16,7 9,5 - - 16 9 - - WNW 1016,5 45 30 -
10.07.2020 11:00:00 15,0 9,1 - - 9 5 - - W 1016,6 40 18 -
10.07.2020 10:00:00 13,4 9,0 15,0 13,4 9 5 - - WNW 1016,3 50 24 0,0
10.07.2020 09:00:00 12,1 10,1 - - 8 4 - - W 1016,1 50 0 0,0
10.07.2020 08:00:00 10,8 10,1 - - 5 3 - - W 1015,9 23 0 0,6
10.07.2020 07:00:00 10,8 10,1 - - 8 4 - - WNW 1015,3 50 0 0,0
10.07.2020 06:00:00 10,8 10,1 - - 5 3 - - NNW 1014,8 35 0 0,0
10.07.2020 05:00:00 10,8 10,5 - - 5 3 - - WNW 1014,3 13 0 0,0
10.07.2020 04:00:00 10,4 9,8 - - 4 2 - - WSW 1014,1 30 0 0,0
10.07.2020 03:00:00 10,4 9,3 - - 4 2 - - SSW 1014,0 40 0 0,6
10.07.2020 02:00:00 10,6 9,2 - - 11 6 - - SW 1013,9 45 0 0,0
10.07.2020 01:00:00 11,1 11,0 - - 4 2 - - SSW 1013,8 6 - 0,0
10.07.2020 00:00:00 10,9 10,6 - - 4 2 - - NW 1013,8 3,8 0 0,0
09.07.2020 23:00:00 11,5 11,0 - - 0 0 - - N 1013,8 12 0 0,6
09.07.2020 22:00:00 11,8 11,0 - - 2 1 - - NNE 1013,8 45 0 0,0
09.07.2020 21:00:00 12,5 11,7 - - 5 3 - - NNE 1013,5 45 0 0,0
09.07.2020 20:00:00 12,7 11,3 - - 5 3 - - SSE 1013,3 40 6 0,0
09.07.2020 19:00:00 12,3 11,4 - - 8 4 - - E 1013,4 40 0 2,0
09.07.2020 18:00:00 12,4 11,5 - - 11 6 - - NW 1013,9 2,6 0 2,8
09.07.2020 17:00:00 13,2 10,7 - - 18 10 - - NNE 1013,5 12 6 0,4
09.07.2020 16:00:00 17,9 10,5 - - 13 7 - - NNE 1012,9 30 36 0,0
09.07.2020 15:00:00 18,2 8,4 - - 9 5 - - S 1013,1 50 30 0,0
09.07.2020 14:00:00 17,7 8,7 - - 8 4 - - N 1013,7 28 24 0,0
09.07.2020 13:00:00 17,5 8,0 - - 4 2 - - SSW 1013,9 40 30 0,0
09.07.2020 12:00:00 17,3 9,9 - - 8 4 - - NNE 1013,9 45 54 0,0
09.07.2020 11:00:00 15,8 9,1 - - 9 5 - - NNW 1013,9 45 54 0,0
09.07.2020 10:00:00 15,3 9,7 14,7 13,4 11 6 - - N 1013,7 45 60 0,0
09.07.2020 09:00:00 15,1 8,7 - - 8 4 - - NNE 1013,9 45 36 0,0
09.07.2020 08:00:00 13,1 9,6 - - 4 2 - - NE 1013,7 45 6 0,0
09.07.2020 07:00:00 11,9 10,3 - - 4 2 - - SE 1013,4 50 6 0,0
09.07.2020 06:00:00 10,6 10,2 - - 4 2 - - NE 1013,4 35 0 0,0
09.07.2020 05:00:00 10,6 10,2 - - 2 1 - - W 1013,3 17 0 0,0
09.07.2020 04:00:00 11,2 10,7 - - 4 2 - - ENE 1013,2 21 0 0,0
09.07.2020 03:00:00 11,2 10,6 - - 4 2 - - W 1013,3 23 0 0,0
09.07.2020 02:00:00 11,3 10,2 - - 0 0 - - N 1013,4 35 0 0,0
09.07.2020 01:00:00 12,2 9,7 - - 5 3 - - S 1013,7 50 - 0,0
09.07.2020 00:00:00 12,1 10,2 - - 5 3 - - SW 1013,9 50 0 0,0
08.07.2020 23:00:00 12,1 11,4 - - 0 0 - - N 1014,0 28 0 0,0
08.07.2020 22:00:00 12,5 11,3 - - 2 1 - - ESE 1013,9 50 0 0,0
08.07.2020 21:00:00 12,6 11,5 - - 5 3 - - NE 1013,9 16 0 0,0

tt = Température de l'air
td = dewpoint
tt -20cm = Température de l'air -20cm
tt -100cm = Température de l'air -100cm
ff = Vitesse du vent
fx = gusts
dd = Direction du vent
ppp = reduced air pressure
vv = visibility
sd = Ensoleillement
rr = Quantités de précipitations

stations d'obs. à proximité